AA2YS Weather Reports


Display with metric or nautical units.
time (UTC)temp
F
wind
direction
speed
MPH
gust
MPH
rain 1hr
in
rain 24hr
in
rain mn
in
humidity
%
barometer
mb
20260505213518 67 225 2.0 6.0 0.00 0.01 0.01 62 1005.5
20260505212518 68 225 1.0 5.0 0.00 0.01 0.01 63 1005.1
20260505211518 68 225 4.0 8.0 0.00 0.01 0.01 61 1004.7
20260505210518 68 225 4.0 12.0 0.00 0.01 0.01 60 1004.8
20260505205519 69 225 5.0 13.0 0.00 0.01 0.01 60 1004.8
20260505204518 69 203 3.0 8.0 0.00 0.01 0.01 60 1004.6
20260505203518 69 225 3.0 9.0 0.00 0.01 0.01 59 1004.5
20260505202538 70 225 2.0 8.0 0.00 0.01 0.01 59 1004.4
20260505201518 70 248 2.0 10.0 0.00 0.01 0.01 60 1004.2
20260505200518 70 225 3.0 9.0 0.00 0.01 0.01 59 1004.3
20260505195518 71 225 4.0 10.0 0.00 0.01 0.01 58 1004.6
20260505194518 71 225 2.0 6.0 0.00 0.01 0.01 57 1004.5
20260505193518 72 203 2.0 6.0 0.00 0.01 0.01 58 1004.3
20260505192518 72 248 1.0 5.0 0.00 0.01 0.01 60 1004.2
20260505191518 71 225 4.0 12.0 0.00 0.01 0.01 58 1004.3
20260505190518 71 225 4.0 10.0 0.00 0.01 0.01 56 1004.3
20260505185518 72 225 5.0 11.0 0.00 0.01 0.01 57 1004.3
20260505184518 72 225 4.0 11.0 0.00 0.01 0.01 56 1004.0
20260505183518 73 225 4.0 14.0 0.00 0.01 0.01 55 1003.9
20260505182518 74 203 2.0 8.0 0.00 0.01 0.01 55 1003.7
20260505181518 73 225 2.0 6.0 0.00 0.01 0.01 56 1003.7
20260505180518 72 225 5.0 11.0 0.00 0.01 0.01 55 1003.8
20260505175518 73 225 3.0 8.0 0.00 0.01 0.01 55 1003.9
20260505174518 73 248 2.0 11.0 0.00 0.01 0.01 55 1003.7
20260505173518 73 225 4.0 8.0 0.00 0.01 0.01 57 1003.7
20260505172518 73 225 5.0 13.0 0.00 0.01 0.01 56 1003.6
20260505171518 72 248 4.0 12.0 0.00 0.01 0.01 58 1003.5
20260505170518 70 225 2.0 7.0 0.00 0.01 0.01 61 1003.3
20260505165518 70 225 4.0 9.0 0.00 0.01 0.01 58 1003.6
20260505164538 71 180 4.0 20.0 0.00 0.01 0.01 56 1003.6
20260505163518 72 225 6.0 16.0 0.00 0.01 0.01 54 1003.6
20260505162518 73 225 3.0 9.0 0.00 0.01 0.01 53 1003.4
20260505161518 73 225 3.0 9.0 0.00 0.01 0.01 54 1003.3
20260505160518 72 23 2.0 7.0 0.00 0.01 0.01 56 1003.1
20260505152538 73 203 3.0 11.0 0.00 0.01 0.01 55 1002.0
20260505151538 73 270 1.0 5.0 0.00 0.01 0.01 56 1002.1
20260505150538 72 248 2.0 7.0 0.00 0.01 0.01 55 1002.3
20260505140521 71 180 2.0 7.0 0.00 0.01 0.01 59 1002.1
20260505124540 69 158 3.0 14.0 0.00 0.01 0.01 60 1001.9
20260505123518 69 180 3.0 12.0 0.00 0.01 0.01 63 1001.8
20260505122540 68 225 2.0 10.0 0.00 0.01 0.01 63 1001.7
20260505121520 68 248 4.0 8.0 0.00 0.01 0.01 64 1001.6
20260505120520 67 180 4.0 12.0 0.00 0.01 0.01 65 1001.7
20260505115520 66 180 2.0 9.0 0.00 0.01 0.01 67 1001.8
20260505114520 66 225 1.0 7.0 0.00 0.01 0.01 68 1001.9
20260505113520 65 158 1.0 7.0 0.00 0.01 0.01 69 1001.7
20260505112520 65 180 1.0 7.0 0.00 0.01 0.01 70 1001.6
20260505111520 64 203 2.0 7.0 0.00 0.01 0.01 71 1001.5
20260505110520 63 248 2.0 4.0 0.00 0.01 0.01 72 1001.3
20260505101520 58 225 1.0 4.0 0.00 0.01 0.01 86 1000.9
20260505100520 58 0.0 4.0 0.00 0.01 0.01 87 1000.8
20260505095520 58 0.0 0.0 0.00 0.01 0.01 87 1000.8
20260505094520 58 0.0 1.0 0.00 0.01 0.01 87 1000.8
20260505093520 58 0.0 5.0 0.00 0.01 0.01 87 1000.8
20260505092600 58 0.0 2.0 0.00 0.01 0.01 86 1000.9
20260505091520 58 0.0 2.0 0.00 0.01 0.01 84 1001.1
20260505090520 58 0.0 0.0 0.00 0.01 0.01 82 1001.1
20260505085540 59 0.0 0.0 0.00 0.01 0.01 80 1001.3
20260505084520 60 0.0 0.0 0.00 0.01 0.01 78 1001.5
20260505083519 60 0.0 0.0 0.00 0.01 0.01 76 1001.5
20260505082520 61 0.0 0.0 0.00 0.01 0.01 77 1001.6
20260505081519 61 0.0 0.0 0.00 0.01 0.01 75 1001.5
20260505080520 62 0.0 0.0 0.01 0.01 0.01 73 1001.7
20260505075519 63 0.0 0.0 0.01 0.01 0.01 73 1001.9
20260505074540 63 0.0 0.0 0.01 0.01 0.01 73 1001.9
20260505073520 64 0.0 0.0 0.01 0.01 0.01 73 1002.3
20260505072519 64 0.0 0.0 0.01 0.01 0.01 73 1002.0
20260505071520 65 158 1.0 9.0 0.01 0.01 0.01 73 1002.1
20260505070519 65 248 1.0 4.0 0.00 0.00 0.00 70 1002.1
20260505065520 65 180 1.0 9.0 0.00 0.00 0.00 68 1002.4
20260505064540 65 0.0 2.0 0.00 0.00 0.00 67 1002.3
20260505063520 65 203 1.0 9.0 0.00 0.00 0.00 66 1002.2
20260505062520 64 0.0 2.0 0.00 0.00 0.00 66 1002.0
20260505061520 64 225 1.0 5.0 0.00 0.00 0.00 66 1002.0
20260505060540 65 225 1.0 6.0 0.00 0.00 0.00 66 1002.0
20260505055520 65 0.0 3.0 0.00 0.00 0.00 65 1002.0
20260505054521 65 0.0 3.0 0.00 0.00 0.00 65 1002.0
20260505053541 65 0.0 1.0 0.00 0.00 0.00 65 1002.2
20260505052520 65 0.0 3.0 0.00 0.00 0.00 64 1002.1
20260505051520 65 180 2.0 9.0 0.00 0.00 0.00 64 1002.1
20260505050540 65 0.0 4.0 0.00 0.00 0.00 64 1002.0
20260505041519 62 225 2.0 7.0 0.00 0.00 0.00 64 1002.4
20260505040520 61 0.0 2.0 0.00 0.00 0.00 66 1002.2
20260505035519 60 0.0 0.0 0.00 0.00 0.00 67 1002.3
20260505034519 59 0.0 3.0 0.00 0.00 0.00 68 1002.4
20260505033518 57 0.0 4.0 0.00 0.00 0.00 70 1002.4
20260505032559 56 203 1.0 4.0 0.00 0.00 0.00 70 1002.4
20260505031519 56 0.0 0.0 0.00 0.00 0.00 70 1002.3
20260505030519 56 0.0 0.0 0.00 0.00 0.00 66 1002.1
20260505025519 56 0.0 0.0 0.00 0.00 0.00 64 1002.1
20260505024519 57 0.0 0.0 0.00 0.00 0.00 64 1002.1
20260505023539 57 0.0 0.0 0.00 0.00 0.00 62 1002.0
20260505022518 58 0.0 0.0 0.00 0.00 0.00 61 1002.2
20260505021518 59 0.0 0.0 0.00 0.00 0.00 61 1002.2
20260505020539 59 0.0 0.0 0.00 0.00 0.00 59 1002.3
20260505015522 60 0.0 0.0 0.00 0.00 0.00 58 1002.5
20260505014519 61 0.0 0.0 0.00 0.00 0.00 57 1002.5
20260505013519 62 0.0 0.0 0.00 0.00 0.00 58 1002.4
20260505012519 63 0.0 0.0 0.00 0.00 0.00 53 1002.4
20260505011519 64 0.0 0.0 0.00 0.00 0.00 52 1002.2
20260505010519 65 0.0 0.0 0.00 0.00 0.00 50 1002.1
20260505005538 66 0.0 0.0 0.00 0.00 0.00 49 1002.0
20260505004519 67 0.0 0.0 0.00 0.00 0.00 46 1002.0
20260505003539 69 0.0 0.0 0.00 0.00 0.00 44 1002.0
20260505002518 70 0.0 0.0 0.00 0.00 0.00 43 1002.0
20260505001519 70 0.0 0.0 0.00 0.00 0.00 42 1002.1
20260505000519 71 0.0 0.0 0.00 0.00 0.00 40 1002.1
20260504235519 72 0.0 0.0 0.00 0.00 0.00 40 1001.9
20260504234518 72 0.0 0.0 0.00 0.00 0.00 40 1001.9
20260504233518 73 225 1.0 6.0 0.00 0.00 0.00 38 1001.7
20260504232519 73 0.0 0.0 0.00 0.00 0.00 38 1001.7
20260504231519 73 0.0 0.0 0.00 0.00 0.00 38 1001.7
20260504230519 73 0.0 1.0 0.00 0.00 0.00 35 1001.7
20260504225520 73 0.0 0.0 0.00 0.00 0.00 34 1001.7
20260504224539 74 0.0 2.0 0.00 0.00 0.00 34 1001.6
20260504223538 74 0.0 2.0 0.00 0.00 0.00 34 1001.6
20260504222539 75 248 2.0 5.0 0.00 0.00 0.00 31 1001.7
20260504221519 75 158 1.0 7.0 0.00 0.00 0.00 34 1001.7
20260504220521 75 225 2.0 7.0 0.00 0.00 0.00 32 1001.7
20260504215519 75 248 1.0 4.0 0.00 0.00 0.00 33 1001.8
20260504214539 75 203 1.0 3.0 0.00 0.00 0.00 32 1001.9